Regional Weather Roundup
Issued by NWS

Home | Current Version | Previous Version | Graphics & Text | Print | Product List | Glossary On
Versions: 1 2 3 4 5 6 7 8 9 10 11 12 13 14 15 16 17 18 19 20 21 22 23 24 25 26 27 28 29 30 31 32 33 34 35 36 37 38 39 40 41 42 43 44 45 46 47 48 49 50
000
ASUS45 KPSR 010000
RWRAZ

ARIZONA HOURLY REGIONAL WEATHER ROUNDUP
NATIONAL WEATHER SERVICE PHOENIX AZ
500 PM MST MON AUG 31 2015

NOTE: FAIR INDICATES FEW OR NO CLOUDS BELOW 12,000 FEET WITH NO
SIGNIFICANT WEATHER AND/OR OBSTRUCTIONS TO VISIBILITY.

AZZ001>003-036-010100-
NORTHWEST ARIZONA

CITY           SKY/WX    TMP DP  RH WIND       PRES   REMARKS
KINGMAN        MOSUNNY   95  48  20 SW16G22   29.93F
6HR MIN TEMP:  90; 6HR MAX TEMP:  98;

$$

AZZ004>008-015-016-018-010100-
NORTH CENTRAL ARIZONA

CITY           SKY/WX    TMP DP  RH WIND       PRES   REMARKS
GRAND CANYON   PTSUNNY   71  51  49 SW5         N/A
6HR MIN TEMP:  66; 6HR MAX TEMP:  73;

WILLIAMS       MOSUNNY   73  54  49 VRB5      30.26F
PRESCOTT       MOSUNNY   86  50  28 W9        30.08S
6HR MIN TEMP:  80; 6HR MAX TEMP:  88;

FLAGSTAFF      CLOUDY    65  53  65 E9        30.28S
PAYSON         MOSUNNY   86  52  30 W10G16    30.10R
PAGE           PTSUNNY   86  50  28 S12       30.02F
6HR MIN TEMP:  77; 6HR MAX TEMP:  89;

$$

AZZ009>014-017-010100-
NORTHEAST ARIZONA

CITY           SKY/WX    TMP DP  RH WIND       PRES   REMARKS
WINSLOW        NOT AVBL
SAINT JOHNS    CLOUDY    75  54  47 SW12      30.16S
6HR MIN TEMP:  74; 6HR MAX TEMP:  79;

WINDOW ROCK    CLOUDY    79  45  29 W16G31    30.22F
6HR MIN TEMP:  75; 6HR MAX TEMP:  84;

SHOW LOW       LGT RAIN  59  50  72 E13       30.24F
$$

AZZ023-010100-
GREATER PHOENIX AREA

CITY           SKY/WX    TMP DP  RH WIND       PRES   REMARKS
PHOENIX        MOSUNNY  104  57  21 W6        29.72F HX 103
6HR MIN TEMP:  97; 6HR MAX TEMP: 106;

GLENDALE       MOSUNNY  106  57  20 S6        29.74F HX 105
LUKE AFB       SUNNY    104  59  23 N3        29.72F HX 104
6HR MIN TEMP:  98; 6HR MAX TEMP: 104;

DEER VALLEY    SUNNY    101  56  22 W13       29.76F HX 100
6HR MIN TEMP:  95; 6HR MAX TEMP: 104;

SCOTTSDALE     SUNNY    102  55  20 S3        29.78F HX 100
6HR MIN TEMP:  95; 6HR MAX TEMP: 103;

MESA-FALCON    MOSUNNY  104  54  18 W14       29.76F HX 102
MESA-GATEWAY   PTSUNNY  100  57  23 W5        29.78F
CHANDLER       MOSUNNY  102  55  21 SW9       29.75F HX 101
$$

AZZ027-028-010100-
SOUTHWEST MARICOPA COUNTY AND PINAL COUNTY

CITY           SKY/WX    TMP DP  RH WIND       PRES   REMARKS
CASA GRANDE    MOSUNNY  104  57  21 CALM      29.76F HX 103
6HR MIN TEMP:  97; 6HR MAX TEMP: 104;

GILA BEND      MOSUNNY  107  50  14 SW12G23   29.70S HX 104
6HR MIN TEMP: 100; 6HR MAX TEMP: 109;

$$

AZZ503-504-507>509-010100-
SOUTHEAST ARIZONA

CITY           SKY/WX    TMP DP  RH WIND       PRES   REMARKS
TUCSON         MOSUNNY   97  55  24 SW6       29.91S
6HR MIN TEMP:  92; 6HR MAX TEMP:  98;

NOGALES        PTSUNNY   80  59  48 SE12G22   30.05R
6HR MIN TEMP:  71; 6HR MAX TEMP:  91; 6HR PCP:  0.04;

SIERRA VISTA   PTSUNNY   83  57  40 SW12      30.10S
6HR MIN TEMP:  81; 6HR MAX TEMP:  89;

SAFFORD        CLOUDY    87  58  37 VRB3      29.93R
6HR MIN TEMP:  87; 6HR MAX TEMP:  99;

$$

AZZ020-021-025-026-031-010100-
SOUTHWEST ARIZONA

CITY           SKY/WX    TMP DP  RH WIND       PRES   REMARKS
YUMA           NOT AVBL
$$

CAZ031-033-041-043-047-048-061-010100-
SOUTHERN CALIFORNIA

CITY           SKY/WX    TMP DP  RH WIND       PRES   REMARKS
DOWNTOWN L.A.  SUNNY     79  62  56 VRB3      29.85S
6HR MIN TEMP:  78; 6HR MAX TEMP:  85;

L.A. AIRPORT   SUNNY     74  63  68 W13       29.86F
6HR MIN TEMP:  74; 6HR MAX TEMP:  81;

SAN DIEGO      MOSUNNY   74  62  66 SW10      29.88S
6HR MIN TEMP:  73; 6HR MAX TEMP:  76;

BURBANK        SUNNY     84  57  39 S10       29.85F
6HR MIN TEMP:  79; 6HR MAX TEMP:  86;

ONTARIO        SUNNY     87  56  34 W15       29.84F
6HR MIN TEMP:  78; 6HR MAX TEMP:  91;

RIVERSIDE      SUNNY     86  59  39 W12G21    29.83S
6HR MIN TEMP:  80; 6HR MAX TEMP:  91;

PALM SPRINGS   SUNNY    105  37   9 NW13      29.71F
6HR MIN TEMP:  97; 6HR MAX TEMP: 107;

EL CENTRO NAS  MOSUNNY  106  47  13 VRB5      29.66F HX 102
6HR MIN TEMP:  99; 6HR MAX TEMP: 108;

IMPERIAL       SUNNY    107  48  14 NW5       29.64F HX 103
6HR MIN TEMP:  99; 6HR MAX TEMP: 108;

BLYTHE         SUNNY    107  59  20 S15       29.67F HX 108
6HR MIN TEMP:  99; 6HR MAX TEMP: 107;

$$

NVZ020-UTZ003-010100-
SOUTHERN NEVADA-UTAH

CITY           SKY/WX    TMP DP  RH WIND       PRES   REMARKS
LAS VEGAS      NOT AVBL
SALT LAKE CITY MOSUNNY   86  39  19 N7        29.97F
6HR MIN TEMP:  79; 6HR MAX TEMP:  87;

$$

NMZ009-TXZ055-010100-
NEW MEXICO-WEST TEXAS

CITY           SKY/WX    TMP DP  RH WIND       PRES   REMARKS
ALBUQUERQUE    PTSUNNY   81  43  26 SW22G30   30.09R
6HR MIN TEMP:  80; 6HR MAX TEMP:  91;

EL PASO        MOSUNNY   95  41  15 W5        29.97S
6HR MIN TEMP:  88; 6HR MAX TEMP:  97;

$$


........................KEY........................
SKY/WX - SKY CONDITION/WEATHER
TMP    - TEMPERATURE IN FAHRENHEIT
DP     - DEW POINT IN FAHRENHEIT
RH     - RELATIVE HUMIDITY IN PERCENT
WIND   - DIRECTION AND SPEED IN MILES PER HOUR (MPH)
VRB    - VARIABLE WIND DIRECTION
PRES   - MEAN SEA LEVEL PRESSURE IN INCHES OF MERCURY
         F - FALLING PRESSURE   R - RISING PRESSURE
         S - STEADY PRESSURE
VSB    - VISIBILITY IN MILES
HX     - HEAT INDEX IN FAHRENHEIT
WCI    - WIND CHILL INDEX IN FAHRENHEIT
TC     - TEMPERATURE IN CELSIUS WHICH IS ALSO KNOWN AS
         TEMPERATURE IN CENTIGRADE
AFB    - AIR FORCE BASE
         LUKE AFB IS LUKE AIR FORCE BASE
         DAVIS-MONTHAN IS DAVIS-MONTHAN AIR FORCE BASE
NAS    - NAVAL AIR STATION
         EL CENTRO NAS IS EL CENTRO NAVAL AIR STATION
N/A    - NOT AVAILABLE



USA.gov is the U.S. government's official web portal to all federal, state and local government web resources and services.